DW7287 Weather Reports


Display with metric or nautical units.
time (UTC)temp
F
wind
direction
speed
MPH
gust
MPH
rain 1hr
in
rain 24hr
in
rain mn
in
humidity
%
barometer
mb
20260902043102 72 0 0.0 0.0 0.00 0.00 0.00 94 1018.3
20260902041606 72 0 0.0 1.0 0.00 0.00 0.00 94 1018.3
20260902040106 72 0 0.0 0.0 0.00 0.00 0.00 94 1018.4
20260902034601 73 0 0.0 1.0 0.00 0.00 0.00 94 1018.3
20260902033110 73 0 0.0 2.0 0.00 0.00 0.00 93 1018.3
20260902031604 73 0 0.0 0.0 0.00 0.00 0.00 93 1018.4
20260902030112 73 0 0.0 1.0 0.00 0.00 0.00 92 1018.5
20260902024600 74 0 0.0 0.0 0.00 0.00 0.00 92 1018.4
20260902023115 74 0 0.0 1.0 0.00 0.00 0.00 92 1018.4
20260902021618 74 0 0.0 0.0 0.00 0.00 0.00 91 1018.6
20260902020105 75 0 0.0 1.0 0.00 0.00 0.00 90 1018.6
20260902014602 75 0 0.0 1.0 0.00 0.00 0.00 89 1018.5
20260902013058 76 0 0.0 0.0 0.00 0.00 0.00 88 1018.4
20260902011601 76 0 0.0 0.0 0.00 0.00 0.00 86 1018.3
20260902004601 78 0 0.0 0.0 0.00 0.00 0.00 84 1018.2
20260902003106 79 0 0.0 0.0 0.00 0.00 0.00 82 1018.1
20260902001601 80 0 0.0 0.0 0.00 0.00 0.00 81 1018.1
20260902000103 81 0 0.0 0.0 0.00 0.00 0.00 79 1018.1
20260901234616 82 0 0.0 0.0 0.00 0.00 0.00 79 1018.2
20260901233105 82 0 0.0 0.0 0.00 0.00 0.00 76 1018.2
20260901231602 84 0 0.0 0.0 0.00 0.00 0.00 73 1018.2
20260901230139 85 0 0.0 1.0 0.00 0.00 0.00 70 1018.2
20260901224605 86 0 0.0 2.0 0.00 0.00 0.00 66 1018.0
20260901223114 87 0 0.0 2.0 0.00 0.00 0.00 63 1017.9
20260901221604 88 0 0.0 2.0 0.00 0.00 0.00 64 1017.6
20260901220104 89 259 0.0 4.0 0.00 0.00 0.00 61 1017.4
20260901214605 89 0 0.0 5.0 0.00 0.00 0.00 61 1017.2
20260901213105 89 179 0.0 3.0 0.00 0.00 0.00 61 1017.2
20260901211600 88 0 1.0 5.0 0.00 0.00 0.00 62 1017.3
20260901204601 90 0 0.0 3.0 0.00 0.00 0.00 59 1018.1
20260901203123 90 46 0.0 8.0 0.00 0.00 0.00 61 1018.3
20260901201612 90 309 2.0 6.0 0.00 0.00 0.00 60 1018.6
20260901200106 89 288 1.0 4.0 0.00 0.00 0.00 61 1018.8
20260901194607 89 0 2.0 7.0 0.00 0.00 0.00 62 1018.6
20260901193102 89 0 1.0 4.0 0.00 0.00 0.00 61 1018.9
20260901191604 89 0 1.0 7.0 0.00 0.00 0.00 61 1019.1
20260901190108 89 0 1.0 8.0 0.00 0.00 0.00 60 1019.3
20260901184557 89 277 2.0 8.0 0.00 0.00 0.00 61 1019.5
20260901183110 89 295 3.0 6.0 0.00 0.00 0.00 59 1019.6
20260901181604 89 298 1.0 4.0 0.00 0.00 0.00 59 1019.7
20260901180058 91 294 1.0 7.0 0.00 0.00 0.00 58 1019.7
20260901174604 89 319 3.0 6.0 0.00 0.00 0.00 63 1019.8
20260901173112 89 305 3.0 11.0 0.00 0.00 0.00 62 1020.3
20260901171621 88 255 4.0 10.0 0.00 0.00 0.00 64 1020.5
20260901170105 89 294 2.0 8.0 0.00 0.00 0.00 63 1020.6
20260901164635 89 314 2.0 8.0 0.00 0.00 0.00 62 1020.4
20260901163100 90 252 2.0 8.0 0.00 0.00 0.00 65 1020.5
20260901161607 89 246 0.0 7.0 0.00 0.00 0.00 66 1020.4
20260901160108 89 0 0.0 0.0 0.00 0.00 0.00 65 1020.1
20260901154602 88 0 0.0 0.0 0.00 0.00 0.00 68 1020.0
20260901153107 88 0 0.0 0.0 0.00 0.00 0.00 68 1020.2
20260901151610 87 0 0.0 0.0 0.00 0.00 0.00 69 1020.2
20260901150110 87 0 0.0 0.0 0.00 0.00 0.00 70 1020.3
20260901144606 86 0 0.0 0.0 0.00 0.00 0.00 72 1020.2
20260901143059 86 0 0.0 0.0 0.00 0.00 0.00 74 1020.3
20260901141609 85 0 0.0 0.0 0.00 0.00 0.00 75 1020.2
20260901140059 83 0 0.0 0.0 0.00 0.00 0.00 78 1020.2
20260901134604 82 0 0.0 0.0 0.00 0.00 0.00 81 1020.4
20260901133104 80 0 0.0 0.0 0.00 0.00 0.00 83 1020.5
20260901131612 78 0 0.0 0.0 0.00 0.00 0.00 89 1020.5
20260901124605 74 0 0.0 0.0 0.00 0.00 0.00 97 1020.7
20260901123104 72 0 0.0 0.0 0.00 0.00 0.00 97 1020.6
20260901121613 71 0 0.0 0.0 0.00 0.00 0.00 97 1020.5
20260901120119 70 0 0.0 0.0 0.00 0.00 0.00 97 1020.3
20260901114603 69 0 0.0 0.0 0.00 0.00 0.00 96 1020.2
20260901113057 69 0 0.0 0.0 0.00 0.00 0.00 96 1020.1
20260901111609 69 0 0.0 0.0 0.00 0.00 0.00 96 1019.9
20260901104600 69 0 0.0 0.0 0.00 0.00 0.00 96 1019.7
20260901103127 69 0 0.0 0.0 0.00 0.00 0.00 96 1019.5
20260901101603 69 0 0.0 0.0 0.00 0.00 0.00 96 1019.4
20260901100105 69 0 0.0 0.0 0.00 0.00 0.00 96 1019.2
20260901094602 70 0 0.0 0.0 0.00 0.00 0.00 96 1019.1
20260901093129 70 0 0.0 0.0 0.00 0.00 0.00 96 1019.1
20260901091606 70 0 0.0 0.0 0.00 0.00 0.00 96 1019.0
20260901090108 70 0 0.0 0.0 0.00 0.00 0.00 96 1019.0
20260901084601 70 0 0.0 0.0 0.00 0.00 0.00 96 1018.9
20260901083102 70 0 0.0 0.0 0.00 0.00 0.00 96 1018.8
20260901081616 70 0 0.0 0.0 0.00 0.00 0.00 96 1018.8
20260901080104 71 0 0.0 0.0 0.00 0.00 0.00 96 1019.0
20260901074600 71 0 0.0 0.0 0.00 0.00 0.00 95 1018.8
20260901073105 71 0 0.0 0.0 0.00 0.00 0.00 95 1018.8
20260901071605 71 0 0.0 0.0 0.00 0.00 0.00 96 1019.1
20260901070104 71 0 0.0 0.0 0.00 0.00 0.00 95 1019.1
20260901064557 72 0 0.0 0.0 0.00 0.00 0.00 95 1019.0
20260901063102 72 0 0.0 0.0 0.00 0.00 0.00 95 1018.9
20260901061604 72 0 0.0 0.0 0.00 0.00 0.00 95 1018.9
20260901054602 72 0 0.0 0.0 0.00 0.00 0.00 95 1018.9
20260901053121 72 0 0.0 0.0 0.00 0.00 0.00 95 1019.1
20260901051603 72 0 0.0 0.0 0.00 0.00 0.00 95 1019.2
20260901050105 73 0 0.0 1.0 0.00 0.00 0.00 94 1019.2
20260901044602 73 0 0.0 0.0 0.00 0.00 0.00 94 1019.0